Temperature
17 17 17 17 17 18 19 21 22 21 20 19 19 19 18 17 16 14 12 12 12 12 13 13 13 13 13 13 13 13 13 13 13 13 13 13 13 13 13 13 14 14 14 14 14 14 14 14 14
17 17 17 18 18 18 19 21 20 19 19 18 18 18 17 15 13 12 11 11 11 12 12 13 13 12 12 12 12 13 13 13 13 13 13 13 13 13 13 13 13 14 14 14 14 14 14 14 14
17 17 17 18 18 19 20 20 19 18 18 18 17 16 16 13 12 11 11 11 11 11 12 12 12 12 12 12 12 12 13 13 13 13 13 13 13 13 13 13 13 13 14 14 14 14 14 14 14
16 17 18 18 18 19 20 19 18 17 17 17 17 15 13 12 11 11 11 11 11 11 12 12 12 12 12 12 12 12 12 12 12 12 12 12 12 13 13 13 13 13 13 13 13 13 13 13 13
16 17 17 17 18 19 19 19 19 18 17 16 16 15 12 11 11 11 11 11 10 11 11 11 11 12 12 12 12 12 12 12 12 12 12 12 12 12 12 13 13 13 13 13 13 13 13 13 13
16 18 17 17 19 19 19 18 18 18 17 16 16 15 11 11 11 11 10 10 10 10 11 11 11 11 11 12 12 12 12 12 12 12 12 12 12 12 12 12 12 12 12 12 12 12 13 13 13
16 16 17 18 18 18 18 18 17 17 16 15 15 14 11 10 10 10 10 10 10 10 10 11 11 11 11 11 11 11 12 12 12 12 12 12 12 12 12 12 12 12 12 12 12 12 12 12 12
16 16 17 18 18 18 17 17 16 16 15 14 14 13 11 10 10 10 9 9 9 9 10 10 10 10 11 11 11 11 11 11 11 11 11 11 11 11 11 11 11 11 11 12 12 12 12 12 12
16 15 15 17 17 16 16 15 14 14 13 12 12 11 10 10 10 9 9 9 9 9 9 9 10 10 10 10 10 10 11 11 11 11 11 11 11 11 11 11 11 11 11 11 11 11 11 11 11
15 14 15 15 15 15 15 14 13 13 12 11 11 10 10 10 9 9 9 9 9 9 9 9 9 9 10 10 10 10 10 10 10 10 10 11 11 10 10 10 11 11 11 11 11 11 11 11 11
15 14 14 14 14 14 14 13 13 13 12 12 11 9 9 9 9 8 8 8 8 9 9 9 9 9 9 9 9 10 10 10 10 10 10 10 10 10 10 10 10 11 11 11 11 11 10 10 10
14 14 14 13 12 13 13 13 12 12 11 11 11 10 9 9 8 8 8 8 8 8 8 8 8 8 9 9 9 9 9 9 9 9 10 10 10 10 10 10 10 10 10 10 10 10 10 10 10
13 13 12 12 11 11 11 11 11 10 10 10 10 10 9 9 8 8 8 7 7 7 8 8 8 8 8 8 8 9 9 9 9 9 9 9 9 9 9 10 10 10 10 10 10 10 10 10 10
13 12 12 12 11 11 10 10 10 10 10 9 9 9 8 8 8 7 7 7 7 7 7 7 7 8 8 8 8 8 8 8 8 8 9 9 9 9 9 9 9 9 9 9 9 9 9 9 9
12 11 11 11 11 11 10 9 9 10 10 9 9 8 8 7 7 7 7 7 7 7 7 7 7 7 7 7 7 7 8 8 8 8 8 8 8 8 8 8 8 9 9 9 9 9 9 9 9
12 11 10 11 11 10 9 9 10 10 9 9 8 8 7 7 6 6 6 6 6 6 7 7 7 7 7 7 7 7 7 7 7 7 7 7 7 7 7 8 8 8 8 8 8 8 8 8 8
11 11 11 10 10 10 9 9 10 10 9 9 8 8 7 6 6 6 6 6 6 6 6 6 6 6 6 6 6 6 6 6 6 6 7 7 7 7 7 7 7 7 7 7 7 7 7 8 8
10 11 12 11 10 10 9 8 8 9 9 9 8 8 7 7 6 6 6 5 5 5 6 6 6 6 6 6 6 6 6 6 6 6 6 6 6 6 6 6 7 6 6 7 7 7 7 7 7
10 11 10 11 10 9 9 8 8 8 8 8 8 7 7 7 6 6 5 5 5 5 5 5 5 5 5 5 5 5 5 5 5 5 5 5 6 6 6 6 6 6 6 6 6 6 6 6 6
10 9 10 10 10 9 8 8 8 8 7 8 7 7 7 6 6 6 5 5 5 5 5 5 5 5 5 5 5 5 5 5 5 5 5 5 5 5 5 5 5 5 5 5 5 5 5 5 5
9 8 8 8 8 8 7 7 8 8 8 8 7 7 7 6 6 5 5 4 4 4 4 4 4 4 4 4 4 4 4 4 4 4 4 4 4 5 5 5 5 5 5 5 5 5 5 5 5
8 7 7 7 6 6 8 6 7 7 7 6 6 7 6 6 5 5 4 4 4 4 4 4 4 4 4 4 4 4 4 4 4 4 4 4 4 4 4 4 4 4 4 4 4 4 4 4 4
6 6 6 6 6 5 7 6 6 7 6 6 5 6 5 5 5 4 4 4 3 3 3 3 3 3 3 3 4 3 3 3 3 3 3 3 3 3 3 3 3 3 3 3 3 3 3 3 3
6 6 6 6 5 5 6 6 6 6 6 6 5 5 5 4 4 4 3 3 3 3 3 3 3 3 3 3 3 3 3 3 3 3 3 3 3 3 3 3 3 3 3 3 3 3 3 3 3
5 4 5 5 5 5 7 6 5 6 6 5 5 5 4 4 3 3 2 2 2 2 2 2 2 2 2 2 2 2 3 3 2 2 2 2 2 2 3 2 2 2 2 2 2 2 2 2 2
4 5 4 5 6 6 5 5 5 5 5 5 4 4 4 3 3 2 2 2 2 2 2 2 2 2 2 2 2 2 2 2 2 2 2 2 2 2 2 2 2 2 2 2 2 2 2 2 2
4 4 4 4 4 4 5 6 5 4 3 3 3 3 3 3 2 2 2 1 1 1 1 1 1 1 1 1 1 1 1 1 1 1 1 1 1 1 1 1 1 1 1 1 1 1 1 1 2
3 3 3 3 4 4 5 6 4 3 3 2 2 2 2 2 2 1 1 1 1 1 0 1 1 1 1 1 0 0 0 1 1 1 1 1 1 1 1 1 1 1 1 1 1 1 1 1 1
2 2 3 3 3 3 4 4 4 3 2 2 1 2 1 1 1 1 0 0 0 0 -0 -0 -0 -0 -0 -0 -0 -0 -0 -0 -0 -0 0 0 0 0 0 0 0 0 0 0 0 0 1 0 1
2 2 2 2 2 2 2 2 2 1 1 1 1 1 1 1 0 -0 -0 -0 -0 -0 -0 -1 -1 -1 -1 -1 -1 -1 -1 -1 -1 -1 -0 -0 -0 -0 -0 -0 -0 -0 -0 -0 -0 -0 -0 -0 -0
Wind_Speed
13 11 6 2 3 4 7 3 1 3 3 4 6 5 5 5 4 6 4 5 7 7 8 7 8 10 11 11 12 12 12 12 12 12 12 12 12 12 12 12 12 12 12 12 12 12 12 13 13
11 6 4 3 4 6 5 4 3 3 5 5 4 3 4 6 6 7 4 5 6 7 8 8 9 10 11 11 12 12 12 11 11 12 13 12 13 13 13 12 12 12 12 12 12 12 12 12 12
9 6 3 3 4 5 1 4 8 6 6 4 4 4 4 5 6 5 4 4 6 7 9 9 9 10 10 11 11 11 11 11 12 12 12 12 12 13 12 12 12 12 11 11 11 11 11 11 11
4 3 4 4 9 5 2 4 7 6 4 3 3 5 5 6 4 5 5 4 6 7 10 9 9 10 10 10 10 10 10 11 11 11 11 12 12 12 13 12 12 11 11 11 11 11 10 11 11
3 3 4 6 9 4 1 4 4 4 5 4 2 4 5 5 8 7 5 5 6 6 9 8 8 9 9 9 9 10 10 10 10 10 10 11 11 11 11 12 11 11 10 10 10 10 10 10 10
3 3 4 8 8 4 2 2 3 3 3 4 2 2 5 6 7 5 4 5 6 6 8 8 8 8 8 9 9 9 9 9 9 9 9 10 10 11 10 10 10 11 10 10 10 9 9 9 9
3 3 6 8 5 3 2 2 2 2 3 3 1 2 5 5 5 4 4 5 6 7 8 7 7 7 8 8 8 8 8 8 9 9 9 9 9 10 10 9 9 10 9 9 9 8 8 7 7
3 3 6 7 6 2 2 3 3 3 2 3 2 1 4 5 6 5 4 4 5 6 6 6 5 6 6 6 7 7 7 7 8 8 8 8 8 9 9 9 8 8 9 8 8 8 7 6 6
4 3 5 4 3 1 3 3 3 4 4 3 4 5 6 10 7 5 4 3 4 4 4 4 4 4 5 5 5 5 6 6 6 7 7 7 7 7 7 7 7 7 7 7 6 6 6 5 5
2 4 3 2 4 2 3 2 2 3 2 2 4 6 7 8 7 6 4 3 3 3 3 3 3 3 4 4 4 3 4 4 4 5 5 5 5 6 6 6 5 5 5 5 4 4 4 4 4
3 3 1 2 4 3 2 1 1 2 3 3 4 6 6 6 5 5 4 4 3 3 3 2 3 3 3 3 2 2 3 3 3 4 3 3 5 6 6 5 5 5 4 4 3 3 3 3 4
4 2 1 1 3 2 0 1 1 2 1 3 3 7 8 6 5 5 4 3 3 3 2 2 2 2 3 3 2 2 2 2 2 3 3 4 4 3 3 3 4 4 3 3 3 3 3 4 3
6 3 1 0 0 0 1 3 3 3 2 3 5 6 7 6 4 4 3 3 3 3 2 2 2 2 2 2 1 2 2 2 2 2 2 4 3 3 3 3 3 4 4 3 4 3 3 4 4
1 2 3 3 3 2 3 4 4 5 4 4 5 5 5 5 4 4 3 3 3 3 2 1 1 1 1 1 1 1 2 2 2 2 2 3 3 3 3 3 3 4 4 3 3 3 2 2 3
2 3 5 6 5 3 2 6 7 6 6 5 5 5 5 5 5 4 4 3 3 3 2 2 1 1 1 1 1 1 2 2 2 2 2 2 2 2 2 2 3 3 4 4 3 3 3 2 2
4 5 5 5 5 5 4 8 4 6 7 6 5 5 5 4 4 4 4 3 3 3 3 2 1 1 1 1 0 1 1 1 2 2 1 1 1 2 2 2 2 3 3 3 2 1 2 2 1
6 6 6 4 5 4 6 6 2 4 6 6 5 5 5 4 4 3 4 3 3 3 3 2 2 2 1 1 1 1 1 1 2 1 1 1 0 1 1 1 1 2 2 3 2 1 1 1 2
4 6 5 5 4 5 7 7 5 4 6 6 5 4 5 5 5 4 4 3 3 3 3 2 2 2 2 1 1 1 1 1 1 1 1 1 0 0 1 1 1 1 1 2 1 1 2 1 2
6 7 8 6 2 5 8 9 7 6 5 5 5 5 5 5 5 5 4 4 3 3 3 3 3 3 3 2 2 1 1 0 1 1 1 0 0 0 1 1 1 1 0 1 1 1 1 2 2
8 9 8 4 1 4 7 10 8 7 7 6 6 5 5 4 4 5 5 4 3 3 3 3 3 3 3 2 2 1 1 1 0 1 1 0 0 1 1 0 1 1 1 1 1 1 0 1 1
7 7 7 5 5 5 5 7 7 5 5 5 5 5 5 5 4 4 4 4 3 3 3 3 3 3 3 2 2 2 1 1 0 0 0 1 1 1 1 1 0 1 1 1 1 1 1 1 2
7 3 6 6 5 4 4 5 6 6 5 6 5 5 4 2 3 4 4 4 3 3 2 2 2 3 3 3 3 3 2 2 2 1 1 1 1 1 1 1 1 1 1 2 2 1 1 1 2
3 3 5 6 5 5 5 5 5 4 5 6 5 4 2 2 2 3 4 4 3 3 2 2 2 2 2 3 3 3 2 2 1 1 1 1 1 1 1 2 1 1 1 2 2 2 2 2 2
3 3 4 4 3 6 9 7 5 3 4 4 4 4 3 2 1 2 2 3 2 2 2 2 2 2 2 2 3 3 3 2 2 2 2 1 1 1 1 2 2 2 2 3 3 3 3 3 3
2 0 1 2 4 6 3 5 5 1 2 3 4 3 3 3 2 2 2 2 2 2 2 2 2 2 2 2 2 3 3 3 3 3 2 2 1 1 2 2 2 3 3 3 3 3 4 4 4
3 3 3 4 4 3 1 5 3 3 3 4 3 3 3 3 2 2 1 1 1 2 2 2 2 2 2 3 3 3 2 2 2 2 2 2 2 3 2 3 3 4 4 4 4 3 4 4 5
2 4 2 2 4 4 5 3 1 2 3 3 4 3 3 2 2 2 2 1 1 1 2 2 2 2 2 3 3 3 3 2 2 2 2 2 2 2 2 3 4 4 5 5 4 4 5 4 5
2 2 1 2 3 5 5 5 2 1 0 2 3 2 2 3 3 2 2 2 1 0 0 1 2 2 2 2 2 3 3 3 3 2 2 2 2 2 3 3 4 4 5 5 4 4 5 5 5
3 2 3 3 3 3 4 3 2 2 3 2 1 2 2 2 2 2 2 2 1 1 0 0 1 1 1 2 2 2 3 2 2 2 2 2 2 2 3 4 4 4 5 5 5 6 6 6 6
1 3 4 3 4 4 3 4 2 3 3 2 1 2 2 2 2 2 2 2 2 1 1 1 0 1 1 1 1 2 2 2 2 2 2 2 2 3 3 3 4 5 5 5 5 6 6 7 7
Wind_Direction
301 275 252 257 245 234 243 242 135 99 74 48 37 32 41 44 39 110 125 76 83 101 101 91 81 77 73 70 67 63 62 60 58 55 55 55 56 57 57 63 65 65 63 62 65 66 66 67 67
293 273 254 240 242 240 238 202 147 75 87 82 56 32 62 73 71 100 105 80 90 101 101 94 86 82 76 71 68 65 63 61 59 57 55 54 55 56 56 59 62 62 63 65 66 66 66 66 66
277 258 249 234 239 249 278 70 97 91 87 102 100 43 37 70 85 101 96 94 92 97 99 97 92 86 79 74 69 64 62 61 61 59 57 55 56 55 55 56 58 59 61 65 66 66 65 65 63
267 234 244 248 249 257 298 83 99 117 107 80 107 104 82 54 60 88 104 100 95 93 97 102 96 90 84 78 71 65 64 61 62 61 59 57 57 56 53 53 55 57 60 63 65 66 67 66 61
244 248 228 238 248 251 31 81 103 124 143 141 129 118 104 80 82 94 106 102 99 92 94 102 92 93 89 83 76 70 65 63 63 63 60 58 56 57 55 53 54 55 58 60 63 66 67 65 60
250 244 238 236 238 215 152 120 148 151 140 122 114 119 108 106 93 100 102 97 92 90 91 95 93 87 86 86 80 74 69 64 61 63 60 58 56 55 56 55 55 53 55 60 59 64 66 63 57
268 256 252 260 254 224 145 128 149 166 150 122 120 132 122 117 105 110 103 98 91 94 96 94 94 88 82 79 78 75 71 65 62 64 62 60 57 53 54 55 54 53 53 59 60 63 66 64 57
297 286 255 254 259 257 96 106 52 21 75 64 64 117 130 130 115 114 107 98 92 89 95 95 98 97 90 84 79 78 76 71 66 65 61 59 58 53 51 52 53 52 50 54 61 64 63 64 58
276 254 254 275 291 94 93 95 77 44 62 71 69 50 80 119 125 119 107 91 84 85 88 85 85 89 95 98 87 85 80 73 72 69 62 58 56 53 52 51 51 47 48 49 54 67 64 61 54
234 237 251 337 355 46 109 111 116 138 140 148 111 84 101 119 129 131 129 128 113 98 92 76 70 71 78 88 94 97 96 82 71 69 57 46 51 50 50 50 48 41 39 44 48 66 70 55 36
226 241 257 1 7 17 88 115 144 186 214 210 171 145 130 135 141 151 154 153 143 125 101 88 63 67 68 64 90 75 84 91 74 70 53 38 54 54 47 40 36 32 32 29 24 34 41 44 34
249 260 304 328 8 15 72 203 230 231 232 43 79 143 146 152 160 167 169 159 135 123 111 94 70 63 61 60 64 75 67 73 64 70 39 42 47 44 40 37 26 22 19 10 7 17 29 28 26
236 237 230 257 131 340 289 245 244 238 197 98 92 123 151 163 168 166 156 142 126 128 128 119 87 76 55 50 37 64 56 60 64 79 43 41 38 30 25 23 21 13 10 9 3 8 23 18 13
284 229 226 229 218 212 235 248 232 235 175 159 148 154 161 169 171 160 151 151 151 155 150 136 132 98 70 53 22 43 47 60 68 70 59 52 44 31 22 16 15 15 7 358 2 1 20 20 14
250 245 234 221 213 191 220 256 229 210 173 180 179 171 164 173 172 166 164 165 162 167 159 159 166 115 118 90 24 54 54 53 64 69 70 56 43 34 23 14 13 10 359 355 5 8 19 23 13
228 235 236 207 204 185 202 255 220 176 177 194 187 176 170 179 176 162 155 150 150 154 160 165 167 146 150 123 64 55 56 57 61 72 78 72 44 32 26 20 11 359 3 0 355 21 2 359 357
218 240 239 218 201 194 209 247 227 172 183 203 193 182 178 181 176 164 151 150 156 163 161 163 161 159 147 112 83 71 67 56 59 76 78 85 44 40 40 23 8 360 9 352 342 1 1 345 332
240 254 257 240 201 215 224 243 239 225 205 208 197 185 183 188 185 166 153 148 156 162 162 160 161 147 123 112 88 72 77 31 33 42 63 103 177 70 59 20 2 2 4 345 339 345 345 332 300
279 269 267 267 203 231 238 248 243 223 214 212 206 199 197 197 171 153 154 150 154 151 161 168 162 162 144 154 157 162 187 260 353 23 25 332 202 189 74 6 353 351 316 324 322 340 335 335 331
267 272 275 281 207 246 257 260 250 224 212 207 207 204 203 183 162 157 156 159 172 172 178 180 170 172 164 171 169 176 172 186 198 15 6 277 226 251 217 48 346 328 299 306 304 302 294 298 320
256 259 276 289 304 252 267 271 226 211 198 197 204 202 192 186 175 167 164 170 174 184 190 197 181 176 172 161 145 135 120 116 145 226 245 303 266 239 239 232 248 308 293 261 265 257 256 257 279
252 285 292 287 289 262 219 273 240 199 203 205 208 201 185 173 159 166 170 174 182 189 182 186 179 176 173 168 165 166 179 192 213 208 204 230 255 261 235 239 237 250 271 270 260 260 260 236 253
271 306 280 265 258 274 237 240 265 189 220 215 196 170 161 150 154 167 174 182 182 166 164 175 162 165 167 170 183 186 199 201 185 177 175 198 212 228 241 236 238 241 256 264 262 255 257 241 239
286 280 264 244 239 254 226 212 265 212 210 182 158 137 132 115 119 139 159 158 155 142 146 161 166 179 171 179 202 202 201 203 191 193 196 213 227 213 218 241 234 243 253 251 247 240 246 246 245
286 321 307 258 225 240 191 205 245 164 103 127 144 133 122 122 122 133 132 144 155 155 163 171 175 193 189 191 215 221 207 197 199 201 205 218 241 249 228 236 239 243 248 252 252 243 243 247 246
232 217 201 234 257 278 223 229 242 103 81 74 84 90 88 102 114 120 135 141 149 170 179 191 198 206 199 211 224 223 218 215 220 215 220 226 237 241 232 233 244 246 241 245 247 251 244 246 244
230 226 240 253 273 265 241 225 253 91 80 68 60 60 78 81 86 85 84 102 121 167 198 204 208 217 209 213 218 224 225 223 227 235 230 235 240 249 235 233 243 247 243 240 237 244 246 245 245
292 291 188 211 253 261 256 231 237 182 145 63 51 31 26 41 45 55 56 48 52 56 240 229 215 220 220 214 216 232 237 237 230 232 236 243 248 252 248 245 241 247 248 243 239 246 247 243 248
188 230 224 229 237 242 267 265 1 144 146 135 44 17 14 18 20 24 21 24 34 31 95 202 226 226 223 220 226 226 236 244 239 245 248 250 258 255 251 255 254 252 250 244 239 242 241 241 247
220 219 202 207 245 236 254 269 355 56 73 62 17 354 358 12 4 357 0 10 14 6 12 352 278 244 242 232 219 226 235 243 249 255 263 262 262 262 261 262 260 258 256 249 241 243 244 240 242
Height
1493 1494 1496 1499 1501 1502 1498 1489 1484 1488 1491 1496 1497 1498 1500 1505 1509 1520 1520 1518 1518 1518 1520 1521 1522 1523 1524 1525 1526 1527 1528 1529 1530 1530 1531 1532 1532 1533 1534 1534 1534 1535 1535 1536 1536 1537 1537 1538 1538
1493 1495 1498 1499 1501 1504 1495 1486 1487 1491 1494 1497 1499 1501 1503 1508 1512 1515 1516 1517 1517 1518 1519 1520 1522 1523 1524 1525 1526 1527 1528 1529 1530 1531 1531 1532 1533 1533 1534 1534 1535 1535 1536 1536 1537 1537 1538 1538 1539
1493 1495 1498 1496 1497 1497 1492 1486 1489 1493 1496 1498 1501 1504 1506 1511 1513 1514 1515 1516 1517 1518 1519 1520 1521 1523 1524 1525 1526 1527 1528 1529 1530 1531 1532 1532 1533 1534 1534 1535 1535 1536 1536 1537 1537 1538 1538 1539 1540
1494 1496 1496 1497 1495 1489 1487 1488 1490 1494 1497 1499 1501 1506 1509 1513 1513 1513 1514 1516 1517 1517 1518 1520 1521 1522 1523 1524 1525 1526 1527 1528 1529 1530 1531 1532 1533 1534 1534 1535 1535 1536 1536 1537 1538 1538 1539 1540 1540
1494 1495 1496 1496 1492 1488 1487 1488 1491 1494 1497 1500 1502 1505 1510 1512 1512 1513 1514 1515 1516 1517 1518 1519 1521 1522 1523 1524 1525 1526 1527 1528 1529 1530 1531 1532 1533 1534 1535 1535 1536 1536 1537 1537 1538 1539 1539 1540 1541
1495 1492 1496 1496 1489 1487 1487 1490 1492 1494 1497 1500 1502 1505 1510 1511 1511 1512 1513 1515 1516 1517 1517 1519 1520 1521 1522 1523 1525 1526 1527 1528 1529 1530 1530 1531 1532 1533 1534 1535 1536 1536 1537 1537 1538 1539 1539 1540 1541
1494 1492 1493 1489 1487 1487 1488 1490 1492 1494 1497 1500 1502 1505 1508 1509 1510 1511 1513 1514 1515 1516 1517 1518 1519 1520 1521 1523 1524 1525 1526 1527 1528 1529 1530 1531 1532 1533 1534 1535 1535 1536 1536 1537 1538 1539 1539 1540 1541
1492 1492 1489 1487 1487 1488 1489 1491 1493 1496 1498 1501 1502 1505 1507 1508 1509 1510 1512 1513 1514 1515 1516 1517 1518 1520 1521 1522 1523 1524 1526 1526 1527 1528 1529 1530 1531 1532 1533 1534 1535 1535 1536 1537 1537 1538 1539 1540 1541
1491 1495 1492 1488 1487 1489 1490 1492 1495 1497 1499 1501 1503 1504 1505 1506 1507 1509 1510 1512 1513 1514 1515 1516 1517 1518 1520 1521 1522 1523 1524 1525 1526 1527 1528 1529 1530 1531 1532 1533 1534 1534 1535 1536 1537 1537 1538 1539 1540
1490 1494 1490 1490 1488 1489 1491 1493 1496 1497 1499 1501 1503 1504 1504 1505 1506 1507 1508 1509 1510 1512 1513 1515 1516 1517 1518 1519 1521 1522 1523 1524 1525 1526 1527 1528 1529 1530 1530 1532 1533 1533 1534 1535 1536 1536 1537 1538 1539
1488 1490 1489 1489 1490 1490 1491 1494 1496 1497 1499 1499 1500 1501 1503 1503 1504 1505 1506 1507 1509 1510 1511 1513 1514 1515 1517 1518 1519 1520 1521 1522 1524 1524 1526 1527 1528 1528 1529 1530 1531 1532 1533 1534 1534 1535 1536 1537 1538
1488 1488 1489 1490 1491 1491 1492 1494 1495 1496 1498 1498 1498 1499 1500 1501 1502 1503 1504 1506 1507 1508 1509 1511 1512 1514 1515 1516 1517 1519 1520 1520 1522 1523 1524 1525 1526 1527 1528 1528 1529 1530 1531 1532 1533 1533 1534 1535 1536
1487 1488 1489 1491 1491 1492 1493 1494 1495 1495 1496 1497 1497 1498 1498 1499 1500 1502 1503 1504 1505 1506 1507 1509 1510 1511 1513 1514 1515 1517 1517 1519 1520 1521 1522 1523 1524 1525 1526 1526 1528 1528 1529 1530 1531 1532 1532 1533 1534
1486 1487 1489 1490 1490 1492 1493 1493 1494 1491 1493 1494 1495 1496 1496 1497 1498 1499 1500 1501 1502 1504 1505 1506 1508 1509 1511 1512 1513 1514 1516 1517 1518 1519 1520 1521 1522 1523 1524 1524 1525 1526 1527 1528 1529 1530 1530 1531 1532
1487 1488 1488 1488 1488 1490 1492 1492 1489 1488 1490 1491 1492 1493 1494 1495 1496 1496 1497 1498 1499 1501 1502 1503 1505 1506 1508 1509 1511 1512 1513 1514 1515 1517 1518 1519 1520 1520 1521 1522 1523 1524 1525 1526 1527 1527 1528 1529 1529
1486 1487 1488 1485 1486 1488 1493 1490 1485 1485 1487 1488 1490 1491 1492 1493 1494 1494 1495 1496 1497 1498 1499 1501 1502 1503 1505 1506 1508 1509 1510 1512 1513 1514 1515 1516 1517 1518 1519 1519 1521 1522 1523 1523 1524 1524 1525 1526 1527
1486 1486 1482 1484 1483 1484 1488 1487 1484 1483 1484 1485 1487 1488 1489 1490 1491 1492 1493 1494 1494 1495 1496 1498 1499 1500 1502 1503 1505 1506 1508 1509 1510 1511 1512 1513 1514 1515 1516 1517 1518 1519 1520 1521 1522 1522 1523 1523 1524
1485 1482 1479 1481 1481 1483 1484 1484 1482 1482 1482 1483 1484 1485 1486 1487 1488 1489 1490 1491 1492 1493 1494 1495 1496 1497 1499 1500 1502 1503 1504 1506 1507 1508 1509 1511 1512 1513 1514 1514 1515 1516 1517 1518 1519 1519 1520 1521 1522
1481 1480 1480 1478 1479 1481 1481 1481 1479 1479 1479 1480 1481 1482 1483 1484 1485 1486 1487 1488 1489 1490 1491 1491 1492 1494 1495 1496 1497 1499 1500 1502 1504 1505 1506 1508 1509 1510 1511 1511 1512 1513 1514 1515 1516 1517 1518 1518 1519
1481 1481 1480 1478 1478 1480 1479 1478 1475 1475 1475 1476 1477 1478 1480 1481 1482 1483 1484 1485 1486 1487 1488 1489 1490 1491 1492 1493 1494 1496 1498 1499 1500 1502 1503 1504 1506 1507 1507 1508 1509 1510 1511 1512 1513 1514 1514 1516 1517
1481 1483 1482 1483 1481 1478 1481 1478 1472 1470 1471 1473 1474 1475 1476 1478 1479 1480 1481 1482 1483 1484 1485 1486 1487 1488 1489 1490 1492 1493 1495 1496 1497 1498 1499 1500 1502 1503 1504 1505 1506 1507 1508 1509 1510 1510 1511 1512 1513
1482 1483 1483 1484 1487 1485 1480 1484 1470 1468 1469 1470 1471 1472 1473 1475 1476 1477 1478 1479 1480 1481 1482 1483 1484 1485 1486 1487 1488 1489 1490 1491 1493 1494 1495 1497 1498 1500 1501 1502 1503 1504 1504 1505 1506 1507 1508 1509 1510
1483 1483 1483 1484 1485 1487 1480 1485 1473 1466 1467 1467 1467 1469 1471 1472 1474 1474 1475 1476 1477 1478 1479 1480 1481 1482 1483 1484 1485 1486 1487 1489 1490 1491 1492 1493 1495 1496 1497 1498 1499 1500 1501 1501 1502 1503 1504 1505 1506
1483 1483 1482 1483 1486 1489 1476 1480 1472 1466 1463 1463 1465 1467 1469 1470 1472 1473 1473 1474 1475 1475 1476 1477 1478 1478 1479 1480 1481 1483 1484 1485 1486 1487 1488 1489 1490 1491 1493 1494 1495 1496 1496 1497 1498 1499 1500 1501 1502
1485 1488 1489 1487 1487 1479 1468 1474 1471 1462 1461 1461 1463 1466 1467 1469 1470 1471 1471 1472 1472 1472 1473 1474 1474 1475 1476 1477 1478 1479 1480 1481 1482 1483 1484 1485 1486 1487 1488 1489 1490 1491 1492 1492 1493 1494 1495 1496 1497
1485 1486 1490 1488 1479 1472 1472 1474 1467 1463 1462 1462 1463 1465 1467 1468 1469 1470 1470 1470 1470 1470 1470 1471 1471 1471 1472 1473 1474 1475 1476 1478 1479 1480 1481 1481 1482 1483 1484 1485 1485 1486 1487 1488 1489 1489 1490 1491 1492
1485 1486 1485 1488 1484 1484 1472 1465 1465 1463 1464 1464 1465 1465 1466 1467 1468 1469 1469 1469 1469 1468 1468 1468 1468 1468 1469 1470 1471 1472 1473 1474 1475 1476 1476 1477 1478 1479 1479 1480 1480 1481 1482 1483 1483 1484 1485 1486 1486
1486 1485 1488 1489 1487 1480 1468 1464 1467 1467 1466 1466 1467 1467 1467 1468 1468 1468 1468 1467 1467 1467 1466 1466 1466 1465 1465 1466 1467 1468 1469 1470 1471 1471 1472 1473 1473 1474 1474 1475 1475 1476 1476 1477 1478 1478 1479 1480 1480
1487 1488 1486 1485 1483 1483 1478 1473 1466 1465 1465 1466 1467 1467 1467 1467 1467 1467 1467 1466 1465 1464 1464 1463 1463 1462 1462 1462 1463 1464 1464 1465 1466 1466 1467 1468 1469 1469 1469 1469 1470 1470 1471 1472 1472 1473 1473 1474 1475
1484 1483 1484 1487 1484 1482 1481 1480 1468 1466 1465 1466 1467 1467 1467 1467 1466 1466 1465 1464 1463 1462 1461 1461 1460 1460 1460 1459 1460 1460 1460 1461 1461 1462 1462 1463 1463 1464 1464 1464 1465 1465 1466 1466 1467 1467 1467 1468 1468